date,time,SUV Intensity [MED/Hr],UV Index,Daily total [MED],Since Last [MED]
26/03/2022,00:06:11,0.000,0.0,0.0,0.0
26/03/2022,00:07:09,0.000,0.0,0.0,0.0
26/03/2022,00:08:09,0.000,0.0,0.0,0.0
26/03/2022,00:09:09,0.000,0.0,0.0,0.0
26/03/2022,00:10:09,0.000,0.0,0.0,0.0
26/03/2022,00:11:10,0.000,0.0,0.0,0.0
26/03/2022,00:12:18,0.000,0.0,0.0,0.0
26/03/2022,00:14:18,0.000,0.0,0.0,0.0
26/03/2022,00:16:10,0.000,0.0,0.0,0.0
26/03/2022,00:17:09,0.000,0.0,0.0,0.0
26/03/2022,00:18:10,0.000,0.0,0.0,0.0
26/03/2022,00:19:09,0.000,0.0,0.0,0.0
26/03/2022,00:20:10,0.000,0.0,0.0,0.0
26/03/2022,00:21:10,0.000,0.0,0.0,0.0
26/03/2022,00:22:09,0.000,0.0,0.0,0.0
26/03/2022,00:23:11,0.000,0.0,0.0,0.0
26/03/2022,00:24:10,0.000,0.0,0.0,0.0
26/03/2022,00:25:10,0.000,0.0,0.0,0.0
26/03/2022,00:26:10,0.000,0.0,0.0,0.0
26/03/2022,00:27:10,0.000,0.0,0.0,0.0
26/03/2022,00:28:10,0.000,0.0,0.0,0.0
26/03/2022,00:29:09,0.000,0.0,0.0,0.0
26/03/2022,00:30:09,0.000,0.0,0.0,0.0
26/03/2022,00:31:11,0.000,0.0,0.0,0.0
26/03/2022,00:32:10,0.000,0.0,0.0,0.0
26/03/2022,00:33:18,0.000,0.0,0.0,0.0
26/03/2022,00:34:08,0.000,0.0,0.0,0.0
26/03/2022,00:35:10,0.000,0.0,0.0,0.0
26/03/2022,00:37:02,0.000,0.0,0.0,0.0
26/03/2022,00:38:10,0.000,0.0,0.0,0.0
26/03/2022,00:39:17,0.000,0.0,0.0,0.0
26/03/2022,00:40:08,0.001,0.0,0.0,0.0
26/03/2022,00:41:10,0.000,0.0,0.0,0.0
26/03/2022,00:42:09,0.000,0.0,0.0,0.0
26/03/2022,00:43:10,0.000,0.0,0.0,0.0
26/03/2022,00:44:09,0.000,0.0,0.0,0.0
26/03/2022,00:45:10,-0.001,0.0,0.0,0.0
26/03/2022,00:46:35,0.000,0.0,0.0,0.0
26/03/2022,00:48:11,0.000,0.0,0.0,0.0
26/03/2022,00:49:18,0.000,0.0,0.0,0.0
26/03/2022,00:51:10,0.000,0.0,0.0,0.0
26/03/2022,00:52:09,0.000,0.0,0.0,0.0
26/03/2022,00:53:10,0.000,0.0,0.0,0.0
26/03/2022,00:54:10,0.000,0.0,0.0,0.0
26/03/2022,00:55:10,0.000,0.0,0.0,0.0
26/03/2022,00:56:10,0.000,0.0,0.0,0.0
26/03/2022,00:57:10,0.001,0.0,0.0,0.0
26/03/2022,00:58:10,0.000,0.0,0.0,0.0
26/03/2022,00:59:18,0.000,0.0,0.0,0.0
26/03/2022,01:01:10,0.000,0.0,0.0,0.0
26/03/2022,01:02:18,0.000,0.0,0.0,0.0
26/03/2022,01:04:10,0.000,0.0,0.0,0.0
26/03/2022,01:05:10,0.001,0.0,0.0,0.0
26/03/2022,01:06:10,0.000,0.0,0.0,0.0
26/03/2022,01:07:09,0.000,0.0,0.0,0.0
26/03/2022,01:08:09,0.001,0.0,0.0,0.0
26/03/2022,01:09:09,-0.000,0.0,0.0,0.0
26/03/2022,01:10:10,0.002,0.0,0.0,0.0
26/03/2022,01:11:10,0.000,0.0,0.0,0.0
26/03/2022,01:12:10,0.000,0.0,0.0,0.0
26/03/2022,01:13:10,0.000,0.0,0.0,0.0
26/03/2022,01:14:10,0.000,0.0,0.0,0.0
26/03/2022,01:15:10,0.000,0.0,0.0,0.0
26/03/2022,01:16:18,-0.000,0.0,0.0,0.0
26/03/2022,01:17:09,0.000,0.0,0.0,0.0
26/03/2022,01:18:09,0.000,0.0,0.0,0.0
26/03/2022,01:19:18,0.000,0.0,0.0,0.0
26/03/2022,01:21:10,0.000,0.0,0.0,0.0
26/03/2022,01:22:10,0.000,0.0,0.0,0.0
26/03/2022,01:23:10,0.000,0.0,0.0,0.0
26/03/2022,01:24:10,0.000,0.0,0.0,0.0
26/03/2022,01:25:09,0.001,0.0,0.0,0.0
26/03/2022,01:26:18,0.000,0.0,0.0,0.0
26/03/2022,01:27:10,0.000,0.0,0.0,0.0
26/03/2022,01:28:10,0.000,0.0,0.0,0.0
26/03/2022,01:29:10,0.000,0.0,0.0,0.0
26/03/2022,01:30:09,0.000,0.0,0.0,0.0
26/03/2022,01:31:10,-0.001,0.0,0.0,0.0
26/03/2022,01:32:10,0.000,0.0,0.0,0.0
26/03/2022,01:33:10,0.001,0.0,0.0,0.0
26/03/2022,01:34:09,0.000,0.0,0.0,0.0
26/03/2022,01:35:10,0.000,0.0,0.0,0.0
26/03/2022,01:36:19,0.000,0.0,0.0,0.0
26/03/2022,01:38:11,0.000,0.0,0.0,0.0
26/03/2022,01:39:18,0.000,0.0,0.0,0.0
26/03/2022,01:40:08,0.001,0.0,0.0,0.0
26/03/2022,01:41:10,0.001,0.0,0.0,0.0
26/03/2022,01:42:18,0.001,0.0,0.0,0.0
26/03/2022,01:43:09,0.000,0.0,0.0,0.0
26/03/2022,01:44:10,0.000,0.0,0.0,0.0
26/03/2022,01:45:10,0.002,0.0,0.0,0.0
26/03/2022,01:46:09,0.000,0.0,0.0,0.0
26/03/2022,01:47:09,0.000,0.0,0.0,0.0
26/03/2022,01:48:10,0.001,0.0,0.0,0.0
26/03/2022,01:49:10,0.000,0.0,0.0,0.0
26/03/2022,01:50:09,0.001,0.0,0.0,0.0
26/03/2022,01:51:11,0.001,0.0,0.0,0.0
26/03/2022,01:52:10,0.000,0.0,0.0,0.0
26/03/2022,01:53:10,0.001,0.0,0.0,0.0
26/03/2022,01:54:09,0.001,0.0,0.0,0.0
26/03/2022,01:55:09,0.001,0.0,0.0,0.0
26/03/2022,01:56:10,0.001,0.0,0.0,0.0
26/03/2022,01:57:10,0.000,0.0,0.0,0.0
26/03/2022,01:58:10,0.001,0.0,0.0,0.0
26/03/2022,01:59:10,0.000,0.0,0.0,0.0
26/03/2022,02:00:09,0.001,0.0,0.0,0.0
26/03/2022,02:01:09,0.001,0.0,0.0,0.0
26/03/2022,02:02:10,0.000,0.0,0.0,0.0
26/03/2022,02:03:18,0.001,0.0,0.0,0.0
26/03/2022,02:05:10,0.001,0.0,0.0,0.0
26/03/2022,02:06:10,0.001,0.0,0.0,0.0
26/03/2022,02:07:10,0.001,0.0,0.0,0.0
26/03/2022,02:08:10,-0.000,0.0,0.0,0.0
26/03/2022,02:09:10,0.001,0.0,0.0,0.0
26/03/2022,02:10:11,0.001,0.0,0.0,0.0
26/03/2022,02:11:10,0.001,0.0,0.0,0.0
26/03/2022,02:12:10,0.001,0.0,0.0,0.0
26/03/2022,02:13:18,0.001,0.0,0.0,0.0
26/03/2022,02:14:08,0.001,0.0,0.0,0.0
26/03/2022,02:15:11,0.001,0.0,0.0,0.0
26/03/2022,02:16:18,0.001,0.0,0.0,0.0
26/03/2022,02:17:09,0.001,0.0,0.0,0.0
26/03/2022,02:18:10,0.000,0.0,0.0,0.0
26/03/2022,02:19:10,0.001,0.0,0.0,0.0
26/03/2022,02:20:09,0.000,0.0,0.0,0.0
26/03/2022,02:21:10,0.001,0.0,0.0,0.0
26/03/2022,02:22:10,0.001,0.0,0.0,0.0
26/03/2022,02:23:10,0.001,0.0,0.0,0.0
26/03/2022,02:24:10,0.001,0.0,0.0,0.0
26/03/2022,02:25:09,0.001,0.0,0.0,0.0
26/03/2022,02:26:10,0.001,0.0,0.0,0.0
26/03/2022,02:27:09,0.000,0.0,0.0,0.0
26/03/2022,02:28:09,0.001,0.0,0.0,0.0
26/03/2022,02:29:09,0.001,0.0,0.0,0.0
26/03/2022,02:30:10,0.002,0.0,0.0,0.0
26/03/2022,02:31:10,0.000,0.0,0.0,0.0
26/03/2022,02:32:10,0.001,0.0,0.0,0.0
26/03/2022,02:33:10,0.000,0.0,0.0,0.0
26/03/2022,02:34:10,0.001,0.0,0.0,0.0
26/03/2022,02:35:10,0.001,0.0,0.0,0.0
26/03/2022,02:36:10,0.001,0.0,0.0,0.0
26/03/2022,02:37:18,0.001,0.0,0.0,0.0
26/03/2022,02:38:10,0.001,0.0,0.0,0.0
26/03/2022,02:39:10,0.001,0.0,0.0,0.0
26/03/2022,02:40:10,0.002,0.0,0.0,0.0
26/03/2022,02:41:09,0.001,0.0,0.0,0.0
26/03/2022,02:42:10,0.000,0.0,0.0,0.0
26/03/2022,02:43:10,0.001,0.0,0.0,0.0
26/03/2022,02:44:10,0.001,0.0,0.0,0.0
26/03/2022,02:45:10,0.000,0.0,0.0,0.0
26/03/2022,02:46:09,0.001,0.0,0.0,0.0
26/03/2022,02:47:18,0.000,0.0,0.0,0.0
26/03/2022,02:48:09,0.001,0.0,0.0,0.0
26/03/2022,02:49:10,0.001,0.0,0.0,0.0
26/03/2022,02:50:18,0.002,0.0,0.0,0.0
26/03/2022,02:52:18,0.001,0.0,0.0,0.0
26/03/2022,02:54:19,0.001,0.0,0.0,0.0
26/03/2022,02:56:10,0.001,0.0,0.0,0.0
26/03/2022,02:57:09,-0.000,0.0,0.0,0.0
26/03/2022,02:58:10,0.001,0.0,0.0,0.0
26/03/2022,02:59:10,0.002,0.0,0.0,0.0
26/03/2022,03:00:10,0.000,0.0,0.0,0.0
26/03/2022,03:01:10,0.001,0.0,0.0,0.0
26/03/2022,03:02:09,0.002,0.0,0.0,0.0
26/03/2022,03:03:18,0.001,0.0,0.0,0.0
26/03/2022,03:05:10,0.000,0.0,0.0,0.0
26/03/2022,03:06:11,0.000,0.0,0.0,0.0
26/03/2022,03:07:10,0.002,0.0,0.0,0.0
26/03/2022,03:08:10,0.001,0.0,0.0,0.0
26/03/2022,03:09:10,0.002,0.0,0.0,0.0
26/03/2022,03:10:10,0.001,0.0,0.0,0.0
26/03/2022,03:11:11,0.001,0.0,0.0,0.0
26/03/2022,03:12:10,0.001,0.0,0.0,0.0
26/03/2022,03:13:10,0.001,0.0,0.0,0.0
26/03/2022,03:14:09,0.000,0.0,0.0,0.0
26/03/2022,03:15:10,0.002,0.0,0.0,0.0
26/03/2022,03:16:10,0.001,0.0,0.0,0.0
26/03/2022,03:17:10,0.002,0.0,0.0,0.0
26/03/2022,03:18:09,0.001,0.0,0.0,0.0
26/03/2022,03:19:09,0.001,0.0,0.0,0.0
26/03/2022,03:20:10,0.001,0.0,0.0,0.0
26/03/2022,03:21:18,0.001,0.0,0.0,0.0
26/03/2022,03:23:11,0.001,0.0,0.0,0.0
26/03/2022,03:24:18,0.001,0.0,0.0,0.0
26/03/2022,03:26:10,0.001,0.0,0.0,0.0
26/03/2022,03:27:10,0.001,0.0,0.0,0.0
26/03/2022,03:28:19,0.001,0.0,0.0,0.0
26/03/2022,03:29:27,0.000,0.0,0.0,0.0
26/03/2022,03:31:10,0.002,0.0,0.0,0.0
26/03/2022,03:32:10,0.001,0.0,0.0,0.0
26/03/2022,03:33:10,0.001,0.0,0.0,0.0
26/03/2022,03:34:10,0.001,0.0,0.0,0.0
26/03/2022,03:35:10,0.001,0.0,0.0,0.0
26/03/2022,03:36:10,0.000,0.0,0.0,0.0
26/03/2022,03:37:18,0.002,0.0,0.0,0.0
26/03/2022,03:39:10,0.001,0.0,0.0,0.0
26/03/2022,03:40:10,0.001,0.0,0.0,0.0
26/03/2022,03:41:09,0.001,0.0,0.0,0.0
26/03/2022,03:42:10,0.001,0.0,0.0,0.0
26/03/2022,03:43:09,0.002,0.0,0.0,0.0
26/03/2022,03:44:09,0.001,0.0,0.0,0.0
26/03/2022,03:45:10,0.000,0.0,0.0,0.0
26/03/2022,03:46:10,0.001,0.0,0.0,0.0
26/03/2022,03:47:10,0.001,0.0,0.0,0.0
26/03/2022,03:48:19,0.000,0.0,0.0,0.0
26/03/2022,03:50:11,0.001,0.0,0.0,0.0
26/03/2022,03:51:10,0.001,0.0,0.0,0.0
26/03/2022,03:52:10,0.001,0.0,0.0,0.0
26/03/2022,03:53:10,0.001,0.0,0.0,0.0
26/03/2022,03:54:10,0.000,0.0,0.0,0.0
26/03/2022,03:55:18,0.001,0.0,0.0,0.0
26/03/2022,03:57:11,0.001,0.0,0.0,0.0
26/03/2022,03:58:10,0.001,0.0,0.0,0.0
26/03/2022,03:59:10,0.000,0.0,0.0,0.0
26/03/2022,04:00:10,0.000,0.0,0.0,0.0
26/03/2022,04:01:18,0.001,0.0,0.0,0.0
26/03/2022,04:02:09,0.002,0.0,0.0,0.0
26/03/2022,04:03:10,0.001,0.0,0.0,0.0
26/03/2022,04:04:09,0.001,0.0,0.0,0.0
26/03/2022,04:05:10,0.000,0.0,0.0,0.0
26/03/2022,04:06:10,0.001,0.0,0.0,0.0
26/03/2022,04:07:10,0.001,0.0,0.0,0.0
26/03/2022,04:08:10,0.001,0.0,0.0,0.0
26/03/2022,04:09:10,0.001,0.0,0.0,0.0
26/03/2022,04:10:10,0.000,0.0,0.0,0.0
26/03/2022,04:11:18,0.001,0.0,0.0,0.0
26/03/2022,04:12:17,0.001,0.0,0.0,0.0
26/03/2022,04:14:11,0.000,0.0,0.0,0.0
26/03/2022,04:15:11,0.002,0.0,0.0,0.0
26/03/2022,04:16:09,0.001,0.0,0.0,0.0
26/03/2022,04:17:10,0.001,0.0,0.0,0.0
26/03/2022,04:18:10,0.002,0.0,0.0,0.0
26/03/2022,04:19:18,0.001,0.0,0.0,0.0
26/03/2022,04:20:08,0.001,0.0,0.0,0.0
26/03/2022,04:21:10,0.001,0.0,0.0,0.0
26/03/2022,04:22:10,0.001,0.0,0.0,0.0
26/03/2022,04:23:10,0.001,0.0,0.0,0.0
26/03/2022,04:24:10,0.000,0.0,0.0,0.0
26/03/2022,04:25:10,0.001,0.0,0.0,0.0
26/03/2022,04:26:10,0.000,0.0,0.0,0.0
26/03/2022,04:27:10,0.001,0.0,0.0,0.0
26/03/2022,04:28:10,0.001,0.0,0.0,0.0
26/03/2022,04:29:18,0.001,0.0,0.0,0.0
26/03/2022,04:30:09,0.001,0.0,0.0,0.0
26/03/2022,04:31:10,0.001,0.0,0.0,0.0
26/03/2022,04:32:10,0.000,0.0,0.0,0.0
26/03/2022,04:33:10,0.001,0.0,0.0,0.0
26/03/2022,04:34:10,0.001,0.0,0.0,0.0
26/03/2022,04:35:10,0.001,0.0,0.0,0.0
26/03/2022,04:36:10,0.001,0.0,0.0,0.0
26/03/2022,04:37:10,0.001,0.0,0.0,0.0
26/03/2022,04:38:10,0.000,0.0,0.0,0.0
26/03/2022,04:39:10,0.002,0.0,0.0,0.0
26/03/2022,04:40:10,0.001,0.0,0.0,0.0
26/03/2022,04:41:10,0.001,0.0,0.0,0.0
26/03/2022,04:42:10,0.000,0.0,0.0,0.0
26/03/2022,04:43:10,0.001,0.0,0.0,0.0
26/03/2022,04:44:10,0.001,0.0,0.0,0.0
26/03/2022,04:45:10,0.001,0.0,0.0,0.0
26/03/2022,04:46:10,0.001,0.0,0.0,0.0
26/03/2022,04:48:11,0.001,0.0,0.0,0.0
26/03/2022,04:49:10,0.002,0.0,0.0,0.0
26/03/2022,04:50:18,0.002,0.0,0.0,0.0
26/03/2022,04:51:09,0.001,0.0,0.0,0.0
26/03/2022,04:52:10,0.001,0.0,0.0,0.0
26/03/2022,04:53:19,0.000,0.0,0.0,0.0
26/03/2022,04:55:10,0.001,0.0,0.0,0.0
26/03/2022,04:56:10,0.002,0.0,0.0,0.0
26/03/2022,04:57:10,0.002,0.0,0.0,0.0
26/03/2022,04:58:10,0.001,0.0,0.0,0.0
26/03/2022,04:59:10,0.001,0.0,0.0,0.0
26/03/2022,05:00:10,0.001,0.0,0.0,0.0
26/03/2022,05:01:10,0.001,0.0,0.0,0.0
26/03/2022,05:02:10,0.001,0.0,0.0,0.0
26/03/2022,05:03:19,0.001,0.0,0.0,0.0
26/03/2022,05:04:18,0.000,0.0,0.0,0.0
26/03/2022,05:05:10,0.001,0.0,0.0,0.0
26/03/2022,05:06:10,0.001,0.0,0.0,0.0
26/03/2022,05:07:10,0.001,0.0,0.0,0.0
26/03/2022,05:08:10,0.001,0.0,0.0,0.0
26/03/2022,05:09:10,0.001,0.0,0.0,0.0
26/03/2022,05:10:10,0.001,0.0,0.0,0.0
26/03/2022,05:11:10,0.000,0.0,0.0,0.0
26/03/2022,05:12:10,0.001,0.0,0.0,0.0
26/03/2022,05:13:10,0.002,0.0,0.0,0.0
26/03/2022,05:14:18,0.001,0.0,0.0,0.0
26/03/2022,05:15:09,0.001,0.0,0.0,0.0
26/03/2022,05:16:10,0.000,0.0,0.0,0.0
26/03/2022,05:17:10,0.000,0.0,0.0,0.0
26/03/2022,05:18:10,0.002,0.0,0.0,0.0
26/03/2022,05:19:10,0.001,0.0,0.0,0.0
26/03/2022,05:20:10,0.002,0.0,0.0,0.0
26/03/2022,05:21:19,0.001,0.0,0.0,0.0
26/03/2022,05:22:10,0.001,0.0,0.0,0.0
26/03/2022,05:23:10,0.001,0.0,0.0,0.0
26/03/2022,05:24:18,0.001,0.0,0.0,0.0
26/03/2022,05:25:09,0.000,0.0,0.0,0.0
26/03/2022,05:26:10,0.002,0.0,0.0,0.0
26/03/2022,05:27:10,0.001,0.0,0.0,0.0
26/03/2022,05:28:10,0.001,0.0,0.0,0.0
26/03/2022,05:29:10,0.001,0.0,0.0,0.0
26/03/2022,05:30:10,0.001,0.0,0.0,0.0
26/03/2022,05:31:11,0.001,0.0,0.0,0.0
26/03/2022,05:32:11,0.001,0.0,0.0,0.0
26/03/2022,05:33:10,0.002,0.0,0.0,0.0
26/03/2022,05:34:10,0.002,0.0,0.0,0.0
26/03/2022,05:35:10,0.001,0.0,0.0,0.0
26/03/2022,05:36:10,0.001,0.0,0.0,0.0
26/03/2022,05:37:10,0.001,0.0,0.0,0.0
26/03/2022,05:38:10,0.000,0.0,0.0,0.0
26/03/2022,05:39:11,0.002,0.0,0.0,0.0
26/03/2022,05:40:10,0.000,0.0,0.0,0.0
26/03/2022,05:41:10,0.001,0.0,0.0,0.0
26/03/2022,05:42:10,0.001,0.0,0.0,0.0
26/03/2022,05:43:11,0.002,0.0,0.0,0.0
26/03/2022,05:44:10,0.002,0.0,0.0,0.0
26/03/2022,05:45:18,0.002,0.0,0.0,0.0
26/03/2022,05:47:11,0.002,0.0,0.0,0.0
26/03/2022,05:48:10,0.002,0.0,0.0,0.0
26/03/2022,05:49:10,0.002,0.0,0.0,0.0
26/03/2022,05:50:11,0.001,0.0,0.0,0.0
26/03/2022,05:51:11,0.002,0.0,0.0,0.0
26/03/2022,05:52:10,0.002,0.0,0.0,0.0
26/03/2022,05:53:10,0.002,0.0,0.0,0.0
26/03/2022,05:54:10,0.003,0.0,0.0,0.0
26/03/2022,05:55:10,0.003,0.0,0.0,0.0
26/03/2022,05:56:10,0.003,0.0,0.0,0.0
26/03/2022,05:57:10,0.004,0.0,0.0,0.0
26/03/2022,05:58:10,0.004,0.0,0.0,0.0
26/03/2022,05:59:10,0.004,0.0,0.0,0.0
26/03/2022,06:00:10,0.004,0.0,0.0,0.0
26/03/2022,06:01:10,0.004,0.0,0.0,0.0
26/03/2022,06:02:10,0.004,0.0,0.0,0.0
26/03/2022,06:03:10,0.004,0.0,0.0,0.0
26/03/2022,06:04:10,0.004,0.0,0.0,0.0
26/03/2022,06:05:10,0.004,0.0,0.0,0.0
26/03/2022,06:06:10,0.005,0.0,0.0,0.0
26/03/2022,06:07:11,0.005,0.0,0.0,0.0
26/03/2022,06:08:10,0.006,0.0,0.0,0.0
26/03/2022,06:09:11,0.006,0.0,0.0,0.0
26/03/2022,06:10:20,0.006,0.0,0.0,0.0
26/03/2022,06:12:10,0.006,0.0,0.0,0.0
26/03/2022,06:13:10,0.007,0.0,0.0,0.0
26/03/2022,06:14:11,0.008,0.0,0.0,0.0
26/03/2022,06:15:10,0.008,0.0,0.001,0.001
26/03/2022,06:16:10,0.008,0.0,0.001,0.0
26/03/2022,06:17:10,0.008,0.0,0.001,0.0
26/03/2022,06:18:08,0.009,0.0,0.001,0.0
26/03/2022,06:19:10,0.009,0.0,0.001,0.0
26/03/2022,06:20:10,0.010,0.0,0.001,0.0
26/03/2022,06:21:10,0.010,0.0,0.001,0.0
26/03/2022,06:22:10,0.011,0.0,0.002,0.001
26/03/2022,06:23:10,0.011,0.0,0.002,0.0
26/03/2022,06:24:10,0.011,0.0,0.002,0.0
26/03/2022,06:25:10,0.012,0.0,0.002,0.0
26/03/2022,06:26:10,0.012,0.0,0.002,0.0
26/03/2022,06:27:10,0.014,0.0,0.003,0.001
26/03/2022,06:28:10,0.012,0.0,0.003,0.0
26/03/2022,06:29:10,0.013,0.0,0.003,0.0
26/03/2022,06:30:11,0.014,0.0,0.003,0.0
26/03/2022,06:31:18,0.014,0.0,0.004,0.001
26/03/2022,06:32:09,0.016,0.0,0.004,0.0
26/03/2022,06:33:10,0.017,0.0,0.004,0.0
26/03/2022,06:34:10,0.017,0.0,0.004,0.0
26/03/2022,06:35:10,0.017,0.0,0.005,0.001
26/03/2022,06:36:11,0.018,0.0,0.005,0.0
26/03/2022,06:37:10,0.019,0.0,0.005,0.0
26/03/2022,06:38:10,0.020,0.0,0.006,0.001
26/03/2022,06:39:11,0.020,0.0,0.006,0.0
26/03/2022,06:40:10,0.021,0.0,0.006,0.0
26/03/2022,06:41:19,0.022,0.0,0.007,0.001
26/03/2022,06:42:10,0.023,0.0,0.007,0.0
26/03/2022,06:43:10,0.024,0.0,0.007,0.0
26/03/2022,06:44:10,0.024,0.0,0.008,0.001
26/03/2022,06:45:11,0.025,0.0,0.008,0.0
26/03/2022,06:46:10,0.026,0.0,0.009,0.001
26/03/2022,06:47:10,0.027,0.0,0.009,0.0
26/03/2022,06:48:11,0.027,0.0,0.009,0.0
26/03/2022,06:49:10,0.029,0.0,0.01,0.001
26/03/2022,06:50:10,0.030,0.0,0.01,0.0
26/03/2022,06:51:11,0.030,0.0,0.011,0.001
26/03/2022,06:52:18,0.032,0.0,0.012,0.001
26/03/2022,06:53:09,0.034,0.0,0.012,0.0
26/03/2022,06:54:11,0.035,0.0,0.013,0.001
26/03/2022,06:55:10,0.035,0.0,0.013,0.0
26/03/2022,06:56:10,0.037,0.0,0.014,0.001
26/03/2022,06:57:10,0.038,0.0,0.014,0.0
26/03/2022,06:58:10,0.040,0.0,0.015,0.001
26/03/2022,06:59:11,0.041,0.0,0.016,0.001
26/03/2022,07:00:10,0.041,0.0,0.016,0.0
26/03/2022,07:01:10,0.044,0.0,0.017,0.001
26/03/2022,07:02:19,0.044,0.0,0.018,0.001
26/03/2022,07:04:11,0.047,0.0,0.019,0.001
26/03/2022,07:05:10,0.048,0.0,0.02,0.001
26/03/2022,07:06:10,0.049,0.0,0.021,0.001
26/03/2022,07:07:10,0.051,0.0,0.022,0.001
26/03/2022,07:08:10,0.053,0.0,0.023,0.001
26/03/2022,07:09:10,0.054,0.0,0.023,0.0
26/03/2022,07:10:19,0.055,0.0,0.025,0.002
26/03/2022,07:11:10,0.056,0.0,0.025,0.0
26/03/2022,07:12:10,0.058,0.0,0.026,0.001
26/03/2022,07:13:10,0.061,0.0,0.027,0.001
26/03/2022,07:14:10,0.061,0.0,0.028,0.001
26/03/2022,07:15:10,0.063,0.0,0.029,0.001
26/03/2022,07:16:11,0.065,0.0,0.03,0.001
26/03/2022,07:17:10,0.066,0.0,0.031,0.001
26/03/2022,07:18:11,0.067,0.0,0.033,0.002
26/03/2022,07:19:10,0.070,0.0,0.034,0.001
26/03/2022,07:20:18,0.071,0.0,0.035,0.001
26/03/2022,07:22:11,0.075,0.0,0.037,0.002
26/03/2022,07:23:10,0.076,0.0,0.039,0.002
26/03/2022,07:24:11,0.078,0.0,0.04,0.001
26/03/2022,07:25:11,0.080,0.0,0.041,0.001
26/03/2022,07:26:10,0.082,0.0,0.043,0.002
26/03/2022,07:27:19,0.084,0.0,0.044,0.001
26/03/2022,07:28:10,0.087,0.0,0.045,0.001
26/03/2022,07:29:11,0.088,0.0,0.047,0.002
26/03/2022,07:30:11,0.089,0.0,0.048,0.001
26/03/2022,07:31:10,0.093,0.0,0.05,0.002
26/03/2022,07:32:10,0.096,0.0,0.051,0.001
26/03/2022,07:33:11,0.097,0.0,0.053,0.002
26/03/2022,07:34:10,0.099,0.0,0.055,0.002
26/03/2022,07:35:10,0.101,0.0,0.056,0.001
26/03/2022,07:36:10,0.103,0.0,0.058,0.002
26/03/2022,07:37:10,0.107,0.0,0.06,0.002
26/03/2022,07:38:10,0.107,0.0,0.062,0.002
26/03/2022,07:39:10,0.111,0.0,0.063,0.001
26/03/2022,07:40:10,0.113,0.0,0.065,0.002
26/03/2022,07:41:11,0.116,0.0,0.067,0.002
26/03/2022,07:42:11,0.118,0.0,0.069,0.002
26/03/2022,07:43:11,0.120,0.0,0.071,0.002
26/03/2022,07:44:10,0.123,0.0,0.073,0.002
26/03/2022,07:45:10,0.125,0.0,0.075,0.002
26/03/2022,07:46:10,0.128,0.0,0.077,0.002
26/03/2022,07:47:10,0.129,0.0,0.079,0.002
26/03/2022,07:48:18,0.132,0.0,0.082,0.003
26/03/2022,07:50:11,0.139,0.0,0.086,0.004
26/03/2022,07:51:11,0.142,0.0,0.089,0.003
26/03/2022,07:52:09,0.144,0.0,0.091,0.002
26/03/2022,07:53:11,0.147,0.0,0.093,0.002
26/03/2022,07:54:12,0.150,0.0,0.096,0.003
26/03/2022,07:55:10,0.153,0.0,0.098,0.002
26/03/2022,07:56:11,0.155,0.0,0.101,0.003
26/03/2022,07:57:11,0.158,0.0,0.103,0.002
26/03/2022,07:58:19,0.163,0.0,0.106,0.003
26/03/2022,08:00:11,0.167,0.0,0.112,0.006
26/03/2022,08:01:11,0.171,0.0,0.114,0.002
26/03/2022,08:02:10,0.174,0.0,0.117,0.003
26/03/2022,08:03:10,0.178,0.0,0.12,0.003
26/03/2022,08:04:10,0.180,0.0,0.123,0.003
26/03/2022,08:05:10,0.184,0.0,0.126,0.003
26/03/2022,08:06:18,0.188,0.0,0.13,0.004
26/03/2022,08:08:11,0.193,0.0,0.136,0.006
26/03/2022,08:09:11,0.197,0.0,0.139,0.003
26/03/2022,08:10:12,0.200,0.0,0.142,0.003
26/03/2022,08:11:10,0.204,0.0,0.146,0.004
26/03/2022,08:12:11,0.207,0.0,0.149,0.003
26/03/2022,08:13:11,0.211,0.0,0.153,0.004
26/03/2022,08:14:10,0.214,0.0,0.156,0.003
26/03/2022,08:15:10,0.218,1.0,0.16,0.004
26/03/2022,08:16:19,0.223,1.0,0.164,0.004
26/03/2022,08:17:10,0.226,1.0,0.167,0.003
26/03/2022,08:18:10,0.230,1.0,0.171,0.004
26/03/2022,08:19:11,0.232,1.0,0.175,0.004
26/03/2022,08:20:10,0.237,1.0,0.179,0.004
26/03/2022,08:21:27,0.243,1.0,0.184,0.005
26/03/2022,08:23:19,0.250,1.0,0.191,0.007
26/03/2022,08:24:10,0.253,1.0,0.195,0.004
26/03/2022,08:25:10,0.257,1.0,0.199,0.004
26/03/2022,08:26:19,0.261,1.0,0.204,0.005
26/03/2022,08:27:10,0.265,1.0,0.208,0.004
26/03/2022,08:28:10,0.269,1.0,0.212,0.004
26/03/2022,08:29:11,0.273,1.0,0.217,0.005
26/03/2022,08:30:11,0.277,1.0,0.222,0.005
26/03/2022,08:31:10,0.280,1.0,0.226,0.004
26/03/2022,08:32:10,0.285,1.0,0.231,0.005
26/03/2022,08:33:10,0.289,1.0,0.236,0.005
26/03/2022,08:34:10,0.293,1.0,0.241,0.005
26/03/2022,08:35:10,0.297,1.0,0.245,0.004
26/03/2022,08:36:19,0.302,1.0,0.251,0.006
26/03/2022,08:37:09,0.307,1.0,0.256,0.005
26/03/2022,08:38:11,0.310,1.0,0.261,0.005
26/03/2022,08:39:11,0.315,1.0,0.266,0.005
26/03/2022,08:40:10,0.319,1.0,0.271,0.005
26/03/2022,08:41:12,0.325,1.0,0.277,0.006
26/03/2022,08:42:10,0.328,1.0,0.282,0.005
26/03/2022,08:43:10,0.332,1.0,0.287,0.005
26/03/2022,08:44:10,0.338,1.0,0.293,0.006
26/03/2022,08:45:11,0.341,1.0,0.299,0.006
26/03/2022,08:46:11,0.346,1.0,0.304,0.005
26/03/2022,08:47:19,0.353,1.0,0.311,0.007
26/03/2022,08:48:10,0.356,1.0,0.316,0.005
26/03/2022,08:49:11,0.361,1.0,0.322,0.006
26/03/2022,08:50:11,0.364,1.0,0.328,0.006
26/03/2022,08:51:19,0.371,1.0,0.335,0.007
26/03/2022,08:52:10,0.375,1.0,0.34,0.005
26/03/2022,08:53:11,0.379,1.0,0.347,0.007
26/03/2022,08:54:11,0.384,1.0,0.353,0.006
26/03/2022,08:55:10,0.389,1.0,0.36,0.007
26/03/2022,08:56:10,0.394,1.0,0.366,0.006
26/03/2022,08:57:10,0.399,1.0,0.373,0.007
26/03/2022,08:58:10,0.404,1.0,0.379,0.006
26/03/2022,08:59:10,0.409,1.0,0.386,0.007
26/03/2022,09:00:10,0.414,1.0,0.393,0.007
26/03/2022,09:01:18,0.419,1.0,0.401,0.008
26/03/2022,09:02:09,0.423,1.0,0.407,0.006
26/03/2022,09:03:10,0.428,1.0,0.414,0.007
26/03/2022,09:04:10,0.432,1.0,0.421,0.007
26/03/2022,09:05:10,0.438,1.0,0.429,0.008
26/03/2022,09:06:11,0.444,1.0,0.436,0.007
26/03/2022,09:07:10,0.448,1.0,0.443,0.007
26/03/2022,09:08:11,0.452,1.0,0.451,0.008
26/03/2022,09:09:10,0.459,1.0,0.458,0.007
26/03/2022,09:10:11,0.464,1.0,0.466,0.008
26/03/2022,09:11:11,0.469,1.0,0.474,0.008
26/03/2022,09:12:10,0.474,1.0,0.482,0.008
26/03/2022,09:13:10,0.478,1.0,0.49,0.008
26/03/2022,09:14:18,0.485,1.0,0.499,0.009
26/03/2022,09:15:10,0.489,1.0,0.506,0.007
26/03/2022,09:16:10,0.494,1.0,0.514,0.008
26/03/2022,09:17:10,0.500,1.0,0.522,0.008
26/03/2022,09:18:11,0.505,1.0,0.531,0.009
26/03/2022,09:19:10,0.513,1.0,0.539,0.008
26/03/2022,09:20:11,0.518,1.0,0.548,0.009
26/03/2022,09:21:10,0.522,1.0,0.556,0.008
26/03/2022,09:22:10,0.527,1.0,0.565,0.009
26/03/2022,09:23:11,0.532,1.0,0.574,0.009
26/03/2022,09:24:19,0.539,1.0,0.584,0.01
26/03/2022,09:25:10,0.542,1.0,0.592,0.008
26/03/2022,09:26:10,0.547,1.0,0.601,0.009
26/03/2022,09:27:11,0.553,1.0,0.61,0.009
26/03/2022,09:28:10,0.558,1.0,0.619,0.009
26/03/2022,09:29:10,0.563,1.0,0.629,0.01
26/03/2022,09:30:10,0.570,1.0,0.638,0.009
26/03/2022,09:31:11,0.575,1.0,0.648,0.01
26/03/2022,09:32:11,0.580,1.0,0.657,0.009
26/03/2022,09:33:10,0.585,1.0,0.667,0.01
26/03/2022,09:34:11,0.592,1.0,0.677,0.01
26/03/2022,09:35:11,0.600,1.0,0.687,0.01
26/03/2022,09:36:10,0.604,1.0,0.697,0.01
26/03/2022,09:37:10,0.610,1.0,0.707,0.01
26/03/2022,09:38:10,0.614,1.0,0.717,0.01
26/03/2022,09:39:11,0.619,1.0,0.727,0.01
26/03/2022,09:40:11,0.626,1.0,0.738,0.011
26/03/2022,09:41:10,0.633,1.0,0.748,0.01
26/03/2022,09:42:18,0.638,1.0,0.76,0.012
26/03/2022,09:44:11,0.650,1.0,0.78,0.02
26/03/2022,09:45:10,0.653,2.0,0.791,0.011
26/03/2022,09:46:11,0.656,2.0,0.802,0.011
26/03/2022,09:47:11,0.663,2.0,0.813,0.011
26/03/2022,09:48:19,0.671,2.0,0.825,0.012
26/03/2022,09:49:11,0.675,2.0,0.835,0.01
26/03/2022,09:50:11,0.680,2.0,0.846,0.011
26/03/2022,09:51:11,0.688,2.0,0.858,0.012
26/03/2022,09:52:11,0.692,2.0,0.869,0.011
26/03/2022,09:53:10,0.699,2.0,0.881,0.012
26/03/2022,09:54:11,0.705,2.0,0.893,0.012
26/03/2022,09:55:10,0.710,2.0,0.904,0.011
26/03/2022,09:56:10,0.719,2.0,0.916,0.012
26/03/2022,09:57:10,0.720,2.0,0.928,0.012
26/03/2022,09:58:19,0.730,2.0,0.942,0.014
26/03/2022,09:59:10,0.735,2.0,0.953,0.011
26/03/2022,10:00:10,0.742,2.0,0.965,0.012
26/03/2022,10:01:11,0.744,2.0,0.977,0.012
26/03/2022,10:02:11,0.751,2.0,0.99,0.013
26/03/2022,10:03:10,0.754,2.0,1.002,0.012
26/03/2022,10:04:11,0.760,2.0,1.015,0.013
26/03/2022,10:05:10,0.766,2.0,1.028,0.013
26/03/2022,10:06:10,0.771,2.0,1.04,0.012
26/03/2022,10:07:10,0.780,2.0,1.053,0.013
26/03/2022,10:08:11,0.782,2.0,1.066,0.013
26/03/2022,10:09:11,0.788,2.0,1.079,0.013
26/03/2022,10:10:11,0.794,2.0,1.093,0.014
26/03/2022,10:11:10,0.800,2.0,1.106,0.013
26/03/2022,10:12:10,0.804,2.0,1.119,0.013
26/03/2022,10:13:10,0.808,2.0,1.133,0.014
26/03/2022,10:14:10,0.811,2.0,1.146,0.013
26/03/2022,10:15:10,0.818,2.0,1.16,0.014
26/03/2022,10:16:11,0.824,2.0,1.173,0.013
26/03/2022,10:17:11,0.831,2.0,1.187,0.014
26/03/2022,10:18:10,0.836,2.0,1.201,0.014
26/03/2022,10:19:10,0.842,2.0,1.215,0.014
26/03/2022,10:20:11,0.849,2.0,1.229,0.014
26/03/2022,10:21:11,0.855,2.0,1.243,0.014
26/03/2022,10:22:19,0.857,2.0,1.26,0.017
26/03/2022,10:23:10,0.861,2.0,1.272,0.012
26/03/2022,10:24:11,0.867,2.0,1.286,0.014
26/03/2022,10:25:19,0.877,2.0,1.303,0.017
26/03/2022,10:26:09,0.882,2.0,1.316,0.013
26/03/2022,10:27:10,0.883,2.0,1.33,0.014
26/03/2022,10:28:10,0.890,2.0,1.345,0.015
26/03/2022,10:29:11,0.894,2.0,1.36,0.015
26/03/2022,10:30:11,0.898,2.0,1.375,0.015
26/03/2022,10:31:11,0.907,2.0,1.39,0.015
26/03/2022,10:32:10,0.902,2.0,1.405,0.015
26/03/2022,10:33:11,0.917,2.0,1.42,0.015
26/03/2022,10:34:11,0.922,2.0,1.435,0.015
26/03/2022,10:35:19,0.924,2.0,1.453,0.018
26/03/2022,10:36:10,0.925,2.0,1.466,0.013
26/03/2022,10:37:11,0.930,2.0,1.482,0.016
26/03/2022,10:38:10,0.942,2.0,1.497,0.015
26/03/2022,10:39:10,0.945,2.0,1.513,0.016
26/03/2022,10:40:10,0.947,2.0,1.529,0.016
26/03/2022,10:41:11,0.956,2.0,1.545,0.016